TimeCDT,TemperatureF,Dew PointF,Humidity,Sea Level PressureIn,VisibilityMPH,Wind Direction,Wind SpeedMPH,Gust SpeedMPH,PrecipitationIn,Events,Conditions,WindDirDegrees,DateUTC
12:53 AM,71.1,68.0,90,29.95,10.0,Calm,Calm,-,N/A,,Clear,0,2013-08-03 05:53:00
1:53 AM,70.0,68.0,93,29.95,10.0,Calm,Calm,-,N/A,,Scattered Clouds,0,2013-08-03 06:53:00
2:53 AM,72.0,70.0,93,29.93,9.0,Calm,Calm,-,N/A,,Overcast,0,2013-08-03 07:53:00
3:53 AM,72.0,69.1,91,29.92,10.0,Calm,Calm,-,N/A,,Scattered Clouds,0,2013-08-03 08:53:00
4:53 AM,72.0,69.1,91,29.92,10.0,Calm,Calm,-,N/A,,Mostly Cloudy,0,2013-08-03 09:53:00
5:40 AM,73.4,69.8,88,29.93,9.0,East,3.5,-,N/A,Thunderstorm,Overcast,90,2013-08-03 10:40:00
5:53 AM,73.0,70.0,90,29.92,10.0,SE,3.5,-,N/A,,Mostly Cloudy,130,2013-08-03 10:53:00
6:17 AM,73.4,71.6,94,29.94,9.0,Calm,Calm,-,N/A,Thunderstorm,Mostly Cloudy,0,2013-08-03 11:17:00
6:34 AM,73.4,71.6,94,29.96,9.0,Calm,Calm,-,0.00,Rain,Light Rain,0,2013-08-03 11:34:00
6:53 AM,73.0,70.0,90,29.95,9.0,SW,3.5,-,0.00,,Overcast,230,2013-08-03 11:53:00
7:53 AM,73.0,70.0,90,29.99,8.0,Calm,Calm,-,N/A,,Scattered Clouds,0,2013-08-03 12:53:00
8:26 AM,73.4,69.8,88,29.99,10.0,NNW,6.9,-,N/A,,Mostly Cloudy,330,2013-08-03 13:26:00
8:35 AM,73.4,69.8,88,29.99,10.0,NW,6.9,-,N/A,,Partly Cloudy,320,2013-08-03 13:35:00
8:53 AM,73.0,69.1,87,29.98,10.0,North,8.1,-,N/A,,Scattered Clouds,360,2013-08-03 13:53:00
9:08 AM,73.4,69.8,88,30.00,10.0,WNW,4.6,-,0.00,Rain,Light Rain,300,2013-08-03 14:08:00
9:53 AM,73.9,70.0,87,30.00,10.0,NNW,5.8,-,0.00,,Overcast,330,2013-08-03 14:53:00
10:53 AM,75.0,70.0,84,30.03,10.0,WNW,8.1,-,0.00,,Overcast,300,2013-08-03 15:53:00
11:53 AM,75.0,71.1,87,30.03,9.0,North,10.4,-,0.00,Rain,Light Rain,10,2013-08-03 16:53:00
12:53 PM,80.1,73.0,79,30.02,10.0,Calm,Calm,-,0.00,,Partly Cloudy,0,2013-08-03 17:53:00
1:51 PM,80.6,71.6,74,30.03,10.0,SW,3.5,-,N/A,,Mostly Cloudy,230,2013-08-03 18:51:00
1:53 PM,81.0,72.0,74,30.02,10.0,Calm,Calm,-,N/A,,Mostly Cloudy,0,2013-08-03 18:53:00
2:24 PM,82.4,73.4,74,30.02,10.0,Calm,Calm,-,N/A,,Overcast,0,2013-08-03 19:24:00
2:34 PM,82.4,73.4,74,30.02,10.0,East,5.8,-,N/A,,Overcast,90,2013-08-03 19:34:00
2:41 PM,82.4,73.4,74,30.02,10.0,Calm,Calm,-,N/A,,Overcast,0,2013-08-03 19:41:00
2:53 PM,84.0,73.0,69,30.01,10.0,Calm,Calm,-,N/A,,Overcast,0,2013-08-03 19:53:00
3:35 PM,82.4,73.4,74,30.02,10.0,NNE,3.5,-,N/A,,Overcast,30,2013-08-03 20:35:00
3:53 PM,82.9,73.0,72,30.01,10.0,NNE,4.6,-,N/A,,Mostly Cloudy,20,2013-08-03 20:53:00
4:10 PM,84.2,73.4,70,30.01,10.0,NNW,4.6,-,N/A,,Mostly Cloudy,340,2013-08-03 21:10:00
4:53 PM,86.0,72.0,63,30.00,10.0,North,6.9,-,N/A,,Partly Cloudy,350,2013-08-03 21:53:00
5:53 PM,84.9,71.1,63,30.00,10.0,NNW,8.1,-,N/A,,Partly Cloudy,340,2013-08-03 22:53:00
6:53 PM,84.0,72.0,67,30.01,10.0,North,5.8,-,N/A,,Scattered Clouds,350,2013-08-03 23:53:00
7:53 PM,81.0,72.0,74,30.02,10.0,Calm,Calm,-,N/A,,Clear,0,2013-08-04 00:53:00
8:53 PM,75.0,72.0,90,30.03,10.0,Calm,Calm,-,N/A,,Clear,0,2013-08-04 01:53:00
9:53 PM,72.0,71.1,97,30.06,7.0,Calm,Calm,-,N/A,,Clear,0,2013-08-04 02:53:00
10:53 PM,72.0,71.1,97,30.08,6.0,Calm,Calm,-,N/A,,Mostly Cloudy,0,2013-08-04 03:53:00
11:53 PM,72.0,70.0,93,30.08,4.0,Calm,Calm,-,N/A,,Scattered Clouds,0,2013-08-04 04:53:00